This demonstration page uses our WeatherBlox Daily Observations layout. Learn more.

Left ArrowRight Arrow

39.01783, -85.05884

Hourly Observations for February 28, 2021

Temp ( °F °C ) Dew Point ( °F °C ) Humidity (%) Winds ( mph kmh ) Pressure ( in mb ) Visibility ( mi km ) Precip ( " mm )
12:52 am 00:52 Cloudy 51 10.6 44 6.7 77 77 ESE 13 20 30.02 1017 10 16 0.00 0.00
1:29 am 01:29 Cloudy with Light Rain 51 10.6 46 7.8 83 83 ESE 12 19 30.01 1016 9 14 0.01 0.25
1:52 am 01:52 Cloudy with Light Rain 51 10.6 47 8.3 86 86 SSE 9 15 30.02 1017 9 14 0.01 0.25
2:25 am 02:25 Cloudy with Light Rain 51 10.6 47 8.3 86 86 S 6 9 30.03 1017 4 6 0.03 0.76
2:52 am 02:52 Cloudy with Light Rain 50 10 48 8.9 93 93 SSE 9 15 29.99 1016 4 6 0.06 1.52
3:52 am 03:52 Cloudy with Light Rain 51 10.6 49 9.4 92 92 S 6 9 29.96 1015 1 1 0.07 1.78
4:52 am 04:52 Cloudy with Rain 52 11.1 51 10.6 97 97 SSE 6 9 29.93 1014 1 1 0.06 1.52
5:31 am 05:31 Cloudy with Heavy Rain 53 11.7 51 10.6 93 93 S 6 9 29.96 1015 2 2 0.18 4.57
5:52 am 05:52 Cloudy with Rain 53 11.7 51 10.6 93 93 SSE 7 11 29.94 1014 2 2 0.25 6.35
6:22 am 06:22 Cloudy with Light Rain 53 11.7 51 10.6 93 93 SE 10 17 29.91 1013 6 10 0.03 0.76
6:52 am 06:52 Cloudy with Light Rain 54 12.2 52 11.1 93 93 SE 12 19 29.87 1012 7 11 0.04 1.02
7:38 am 07:38 Cloudy with Heavy Rain 54 12.2 51 10.6 90 90 Calm 29.91 1013 2 3 0.04 1.02
7:52 am 07:52 Cloudy with Heavy Rain 54 12.2 52 11.1 93 93 E 5 7 29.90 1012 2 3 0.13 3.30
8:52 am 08:52 Cloudy with Rain 54 12.2 52 11.1 93 93 E 7 11 29.86 1011 3 4 0.37 9.40
9:13 am 09:13 Cloudy with Heavy Rain 54 12.2 52 11.1 93 93 N 9 15 29.90 1013 1 2 0.15 3.81
9:32 am 09:32 Cloudy with Heavy Rain 53 11.7 52 11.1 96 96 NNE 9 15 29.89 1012 1 2 0.28 7.11
9:52 am 09:52 Cloudy with Rain 54 12.2 52 11.1 93 93 NE 9 15 29.87 1012 2 3 0.41 10.41
10:52 am 10:52 Cloudy with Light Rain 54 12.2 52 11.1 93 93 ENE 7 11 29.86 1011 2 3 0.14 3.56
11:52 am 11:52 Cloudy with Light Rain 55 12.8 53 11.7 93 93 ESE 7 11 29.83 1010 3 4 0.20 5.08
12:52 pm 12:52 Cloudy with Light Rain 56 13.3 54 12.2 93 93 E 3 6 29.81 1010 10 16 0.00 0.00
1:08 pm 13:08 Cloudy with Light Rain 56 13.3 54 12.2 93 93 E 3 6 29.81 1009 2 3 0.00 0.00
1:22 pm 13:22 Cloudy with Light Rain 57 13.9 55 12.8 93 93 E 3 6 29.81 1009 1 2 0.00 0.00
1:29 pm 13:29 Cloudy with Light Rain 56 13.3 54 12.2 93 93 SE 5 7 29.80 1009 1 2 0.01 0.25
1:52 pm 13:52 Cloudy with Light Rain 57 13.9 55 12.8 93 93 SSE 9 15 29.76 1008 2 3 0.02 0.51
2:15 pm 14:15 Cloudy 58 14.4 56 13.3 93 93 S 8 13 29.78 1008 3 5 0.00 0.00
2:38 pm 14:38 Cloudy 60 15.6 57 13.9 90 90 SSW 8 13 29.76 1008 10 16 0.00 0.00
2:52 pm 14:52 Cloudy 60 15.6 57 13.9 90 90 SW 10 17 29.76 1008 10 16 0.00 0.00
3:19 pm 15:19 Cloudy 60 15.6 57 13.9 90 90 SW 15 24 29.77 1008 10 16 0.00 0.00
3:52 pm 15:52 Cloudy 60 15.6 57 13.9 90 90 WSW 10 17 29.76 1008 10 16 0.00 0.00
4:49 pm 16:49 Cloudy 61 16 55 13 83 83 WSW 12 19 29.76 1008 10 16 0.00 0.00
4:52 pm 16:52 Cloudy 61 16.1 56 13.3 84 84 W 9 15 29.75 1008 10 16 0.00 0.00
5:42 pm 17:42 Cloudy 61 16.1 56 13.3 84 84 WSW 8 13 29.76 1008 10 16 0.00 0.00
5:52 pm 17:52 Cloudy 60 15.6 56 13.3 86 86 WSW 6 9 29.77 1008 10 16 0.00 0.00
6:49 pm 18:49 Cloudy with Light Rain 61 16 55 13 83 83 SSW 3 6 29.78 1008 10 16 0.00 0.00
6:52 pm 18:52 Cloudy 60 15.6 56 13.3 86 86 Calm 29.77 1008 10 16 0.00 0.00
7:52 pm 19:52 Cloudy 58 14.4 56 13.3 93 93 SSW 3 6 29.80 1009 7 11 0.00 0.00
8:31 pm 20:31 Cloudy with Rain 59 15 56 13.3 90 90 S 3 6 29.79 1009 3 4 0.02 0.51
8:40 pm 20:40 Cloudy with Rain 58 14.4 56 13.3 93 93 W 7 11 29.82 1010 2 3 0.05 1.27
8:52 pm 20:52 Cloudy with Light Rain 59 15 57 13.9 93 93 WSW 6 9 29.81 1009 3 4 0.12 3.05
9:15 pm 21:15 Cloudy with Light Rain 59 15 57 13.9 93 93 WSW 7 11 29.82 1010 4 6 0.02 0.51
9:52 pm 21:52 Cloudy with Rain 59 15 56 13.3 90 90 SW 10 17 29.83 1010 3 5 0.08 2.03
10:04 pm 22:04 Cloudy with Heavy Rain 59 15 56 13.3 90 90 SW 12 19 29.83 1010 3 4 0.04 1.02
10:13 pm 22:13 Cloudy with Rain 59 15 55 12.8 87 87 SW 9 15 29.82 1010 3 5 0.08 2.03
10:52 pm 22:52 Cloudy with Light Rain 57 13.9 55 12.8 93 93 SSW 8 13 29.78 1009 8 13 0.12 3.05
11:26 pm 23:26 Cloudy with Light Rain 57 13.9 55 12.8 93 93 W 10 17 29.81 1009 7 11 0.00 0.00
11:47 pm 23:47 Cloudy with Light Rain 54 12 48 9 82 82 NW 18 30 29.81 1010 8 13 0.00 0.00
11:52 pm 23:52 Cloudy with Light Rain 53 11.7 49 9.4 86 86 NW 18 30 29.80 1009 9 14 0.00 0.00
11:58 pm 23:58 Cloudy with Light Rain 52 11.1 46 7.8 80 80 NW 22 35 29.83 1010 10 16 0.00 0.00

Powered by AerisWeather